Regional Weather Roundup
Issued by NWS

Home | Current Version | Previous Version | Text Only | Print | Product List | Glossary On
Versions: 1 2 3 4 5 6 7 8 9 10 11 12 13 14 15 16 17 18 19 20 21 22 23 24 25 26 27 28
000
ASUS45 KREV 241810
RWRNV
NEVADA REGIONAL WEATHER ROUNDUP
NATIONAL WEATHER SERVICE RENO NV
1100 AM PDT WED AUG 24 2016

NOTE: "FAIR" INDICATES FEW OR NO CLOUDS BELOW 12,000 FEET WITH NO
SIGNIFICANT WEATHER AND/OR OBSTRUCTIONS TO VISIBILITY.

NVZ001-003-004-241900-
WESTERN NEVADA

CITY           SKY/WX    TMP DP  RH WIND       PRES   REMARKS
RENO           MOSUNNY   77  28  16 CALM      30.21F
6HR MIN TEMP:  53; 6HR MAX TEMP:  77;

CARSON CITY    FAIR      77  16  10 CALM      30.24F
MINDEN         FAIR      77  32  19 SE3       30.24F
PYRAMID LAKE     N/A     75 N/A N/A N9          N/A
FALLON         SUNNY     82  20  10 N7        30.18F
6HR MIN TEMP:  51; 6HR MAX TEMP:  82;

LOVELOCK       SUNNY     82  17   9 VRB3      30.18F
6HR MIN TEMP:  44; 6HR MAX TEMP:  82;

HAWTHORNE        N/A    N/A N/A N/A MISG        N/A
$$

NVZ002-CAZ072-073-241900-
NORTHERN AND CENTRAL SIERRA

CITY           SKY/WX    TMP DP  RH WIND       PRES   REMARKS
S. LAKE TAHOE  SUNNY     75   7   7 S16G22    30.32S
6HR MIN TEMP:  36; 6HR MAX TEMP:  75;

TRUCKEE        SUNNY     70  23  17 CALM      30.31F
SQUAW VLY 8000 NOT AVBL
SUSANVILLE     SUNNY     75  34  22 CALM      30.21F
MAMMOTH LAKES  FAIR      75  28  17 S5        30.38F
6HR MIN TEMP:  35; 6HR MAX TEMP:  75;

BRIDGEPORT       N/A     77  22  13 S13G22    30.33S
$$

NVZ030-031-036-241900-
NORTHERN NEVADA

CITY           SKY/WX    TMP DP  RH WIND       PRES   REMARKS
ELKO           SUNNY     75  17  11 S6        30.23F
6HR MIN TEMP:  42; 6HR MAX TEMP:  75;

WINNEMUCCA     SUNNY     78  18  10 CALM      30.20F
6HR MIN TEMP:  38; 6HR MAX TEMP:  78;

WENDOVER       SUNNY     75  27  16 SE15      30.17F
$$

NVZ035-037-241900-
CENTRAL NEVADA

CITY           SKY/WX    TMP DP  RH WIND       PRES   REMARKS
ELY            SUNNY     75  29  18 VRB6      30.27F
6HR MIN TEMP:  42; 6HR MAX TEMP:  75;

EUREKA           N/A     75  21  13 VRB6      30.26F
6HR MIN TEMP:  41; 6HR MAX TEMP:  75;

$$

NVZ013-014-241900-
SOUTH CENTRAL NEVADA

CITY           SKY/WX    TMP DP  RH WIND       PRES   REMARKS
TONOPAH        SUNNY     81  24  12 NW17G24   30.26F
6HR MIN TEMP:  62; 6HR MAX TEMP:  81;

$$

NVZ017-020-022-241900-
SOUTHERN NEVADA

CITY           SKY/WX    TMP DP  RH WIND       PRES   REMARKS
LAS VEGAS      MOSUNNY   90  48  23 E3        30.01F
6HR MIN TEMP:  76; 6HR MAX TEMP:  90;

N. LAS VEGAS   SUNNY     89  50  26 SE3       30.03F
6HR MIN TEMP:  74; 6HR MAX TEMP:  89; 6HR PCP: TRACE;

NELLIS AFB     SUNNY     88  56  33 NE1       30.01F
6HR MIN TEMP:  74; 6HR MAX TEMP:  88;

HENDERSON      SUNNY     90  52  27 VRB3      30.06F
6HR MIN TEMP:  73; 6HR MAX TEMP:  91; 6HR PCP:  0.01;

MERCURY        SUNNY     89  43  20 SW13      30.09F
6HR MIN TEMP:  68; 6HR MAX TEMP:  90;

$$




USA.gov is the U.S. government's official web portal to all federal, state and local government web resources and services.